St. James, MN

5:14 AM CDT on August 20, 2017 (GMT -0500)
Saint James Municipal

Weather History for KJYG - October, 2011

Change the Weather History Date:

Saturday, October 15, 2011

  Actual Average Record
Temperature  
Mean Temperature 52 °F -  
Max Temperature 64 °F 59 °F 90 °F (1958)
Min Temperature 39 °F 38 °F 24 °F (2006)
Degree Days  
Heating Degree Days 14    
Growing Degree Days 2 (Base 50)    
Moisture  
Dew Point 37 °F    
Average Humidity 61    
Maximum Humidity 87    
Minimum Humidity 26    
Precipitation  
Precipitation 0.00 in - - ()
Sea Level Pressure  
Sea Level Pressure 29.90 in    
Wind  
Wind Speed 10 mph (West)    
Max Wind Speed 18 mph    
Max Gust Speed 22 mph    
Visibility 10 miles    
Events Rain    
Averages and records for this station are not official NWS values.
T = Trace of Precipitation, MM = Missing Value Source: NWS Daily Summary

Daily Weather History Graph

Daily Weather History Graph

Search for Another Location

Airport or City:

Trip Planner

Search our weather history database for the weather conditions in past years. The results will help you decide how hot, cold, wet, or windy it might be!

Date:

Astronomy

Oct. 15, 2011 Rise Set
Actual Time 7:32 AM CDT 6:34 PM CDT
Civil Twilight 7:03 AM CDT 7:03 PM CDT
Nautical Twilight 6:29 AM CDT 7:37 PM CDT
Astronomical Twilight 5:56 AM CDT 8:10 PM CDT
Moon 8:23 PM CDT (10/15) 11:05 AM CDT (10/15)
Length of Visible Light 12h 00m
Length of Day
11h 02m
Waning Gibbous, 89% of the Moon is Illuminated
Oct 15
Waning Gibbous
Oct 19
Last Quarter
Oct 26
New
Nov 2
First Quarter
Nov 10
Full

Hourly Weather History & Observations

Time (CDT) Temp. Windchill Dew Point Humidity Pressure Visibility Wind Dir Wind Speed Gust Speed Precip Events Conditions
12:14 AM 44.6 °F 38.8 °F 39.2 °F 81% 29.91 in 10.0 mi West 11.5 mph - N/A   Clear
12:34 AM 44.6 °F 38.8 °F 39.2 °F 81% 29.91 in 10.0 mi West 11.5 mph - N/A   Clear
12:55 AM 44.6 °F 38.8 °F 39.2 °F 81% 29.91 in 10.0 mi West 11.5 mph - N/A   Clear
1:15 AM 44.6 °F 38.8 °F 39.2 °F 81% 29.91 in 10.0 mi West 11.5 mph - N/A   Clear
1:35 AM 44.6 °F 38.8 °F 39.2 °F 81% 29.91 in 10.0 mi West 11.5 mph - N/A   Clear
1:55 AM 44.6 °F 38.8 °F 39.2 °F 81% 29.91 in 10.0 mi West 11.5 mph - N/A   Clear
2:15 AM 44.6 °F 38.8 °F 39.2 °F 81% 29.91 in 10.0 mi West 11.5 mph - N/A   Clear
2:35 AM 44.6 °F 38.8 °F 39.2 °F 81% 29.91 in 10.0 mi West 11.5 mph - N/A   Clear
2:55 AM 44.6 °F 39.2 °F 39.2 °F 81% 29.92 in 10.0 mi West 10.4 mph - N/A   Clear
3:14 AM 42.8 °F 37.0 °F 39.2 °F 87% 29.92 in 10.0 mi West 10.4 mph - N/A   Clear
3:35 AM 42.8 °F 37.0 °F 37.4 °F 81% 29.92 in 10.0 mi West 10.4 mph - N/A   Clear
3:55 AM 42.8 °F 37.0 °F 37.4 °F 81% 29.92 in 10.0 mi West 10.4 mph - N/A   Clear
4:14 AM 42.8 °F 38.0 °F 37.4 °F 81% 29.92 in 10.0 mi WSW 8.1 mph - N/A   Clear
4:35 AM 42.8 °F 37.5 °F 37.4 °F 81% 29.93 in 10.0 mi West 9.2 mph - N/A   Clear
4:55 AM 42.8 °F 37.5 °F 37.4 °F 81% 29.93 in 10.0 mi WSW 9.2 mph - N/A   Clear
5:15 AM 42.8 °F 37.5 °F 37.4 °F 81% 29.94 in 10.0 mi WSW 9.2 mph - N/A   Clear
5:35 AM 41.0 °F 34.7 °F 37.4 °F 87% 29.94 in 10.0 mi WSW 10.4 mph - N/A   Clear
5:55 AM 42.8 °F 37.0 °F 37.4 °F 81% 29.95 in 10.0 mi WSW 10.4 mph - N/A   Clear
6:14 AM 41.0 °F 34.7 °F 37.4 °F 87% 29.94 in 10.0 mi WSW 10.4 mph - N/A   Clear
6:34 AM 41.0 °F 34.7 °F 35.6 °F 81% 29.94 in 10.0 mi West 10.4 mph - N/A   Clear
7:14 AM 39.2 °F 33.0 °F 35.6 °F 87% 29.95 in 10.0 mi WSW 9.2 mph - N/A   Clear
8:15 AM 42.8 °F 37.0 °F 37.4 °F 81% 29.95 in 10.0 mi WSW 10.4 mph - N/A   Clear
8:35 AM 42.8 °F 36.6 °F 37.4 °F 81% 29.96 in 10.0 mi WSW 11.5 mph - N/A   Clear
8:55 AM 44.6 °F 38.8 °F 37.4 °F 76% 29.96 in 10.0 mi WSW 11.5 mph - N/A   Clear
9:14 AM 46.4 °F 41.1 °F 39.2 °F 76% 29.96 in 10.0 mi WSW 11.5 mph - N/A   Clear
9:35 AM 48.2 °F - 39.2 °F 71% 29.96 in 10.0 mi West 11.5 mph - N/A   Clear
9:54 AM 50.0 °F - 39.2 °F 66% 29.97 in 10.0 mi West 13.8 mph - N/A   Clear
10:35 AM 53.6 °F - 39.2 °F 58% 29.96 in 10.0 mi West 15.0 mph - N/A   Clear
10:54 AM 55.4 °F - 39.2 °F 54% 29.96 in 10.0 mi WNW 13.8 mph - N/A   Clear
11:13 AM 55.4 °F - 37.4 °F 51% 29.96 in 10.0 mi West 18.4 mph 21.9 mph N/A   Clear
11:35 AM 57.2 °F - 35.6 °F 44% 29.95 in 10.0 mi West 17.3 mph - N/A   Clear
11:55 AM 57.2 °F - 35.6 °F 44% 29.94 in 10.0 mi West 15.0 mph - N/A   Clear
12:15 PM 59.0 °F - 35.6 °F 42% 29.94 in 10.0 mi West 16.1 mph 21.9 mph N/A   Mostly Cloudy
12:34 PM 59.0 °F - 35.6 °F 42% 29.94 in 10.0 mi West 15.0 mph - N/A   Overcast
12:55 PM 57.2 °F - 35.6 °F 44% 29.93 in 10.0 mi West 15.0 mph 21.9 mph N/A   Mostly Cloudy
1:15 PM 59.0 °F - 35.6 °F 42% 29.92 in 10.0 mi West 17.3 mph 20.7 mph N/A   Scattered Clouds
1:35 PM 60.8 °F - 33.8 °F 36% 29.91 in 10.0 mi West 17.3 mph 21.9 mph N/A   Scattered Clouds
1:55 PM 60.8 °F - 33.8 °F 36% 29.90 in 10.0 mi West 12.7 mph 18.4 mph N/A   Mostly Cloudy
2:14 PM 62.6 °F - 33.8 °F 34% 29.89 in 10.0 mi West 8.1 mph 16.1 mph N/A   Mostly Cloudy
2:34 PM 62.6 °F - 32.0 °F 32% 29.88 in 10.0 mi West 8.1 mph - N/A   Scattered Clouds
2:55 PM 62.6 °F - 30.2 °F 30% 29.88 in 10.0 mi West 11.5 mph - N/A   Clear
3:14 PM 60.8 °F - 30.2 °F 31% 29.87 in 10.0 mi WNW 8.1 mph 17.3 mph N/A   Clear
3:35 PM 60.8 °F - 30.2 °F 31% 29.86 in 10.0 mi West 8.1 mph - N/A   Clear
3:55 PM 62.6 °F - 30.2 °F 30% 29.85 in 10.0 mi West 8.1 mph - N/A   Clear
4:14 PM 64.4 °F - 28.4 °F 26% 29.85 in 10.0 mi West 9.2 mph - N/A   Clear
4:35 PM 62.6 °F - 28.4 °F 27% 29.85 in 10.0 mi WSW 6.9 mph - N/A   Clear
5:15 PM 62.6 °F - 30.2 °F 30% 29.86 in 10.0 mi West 6.9 mph - N/A   Scattered Clouds
5:35 PM 62.6 °F - 28.4 °F 27% 29.86 in 10.0 mi West 6.9 mph - N/A   Clear
5:55 PM 60.8 °F - 30.2 °F 31% 29.85 in 10.0 mi West 5.8 mph - N/A   Scattered Clouds
6:14 PM 60.8 °F - 32.0 °F 34% 29.85 in 10.0 mi West 4.6 mph - N/A   Scattered Clouds
6:35 PM 59.0 °F - 33.8 °F 39% 29.85 in 10.0 mi West 3.5 mph - N/A   Mostly Cloudy
7:15 PM 57.2 °F - 33.8 °F 41% 29.87 in 10.0 mi WNW 3.5 mph - N/A   Mostly Cloudy
7:35 PM 57.2 °F - 35.6 °F 44% 29.87 in 10.0 mi North 5.8 mph - N/A   Overcast
7:54 PM 55.4 °F - 35.6 °F 47% 29.86 in 10.0 mi NNE 3.5 mph - N/A   Mostly Cloudy
8:15 PM 55.4 °F - 37.4 °F 51% 29.85 in 10.0 mi North 6.9 mph - N/A   Mostly Cloudy
8:35 PM 55.4 °F - 39.2 °F 54% 29.85 in 10.0 mi North 10.4 mph - N/A   Mostly Cloudy
8:55 PM 53.6 °F - 41.0 °F 62% 29.85 in 10.0 mi North 10.4 mph - N/A   Overcast
9:15 PM 51.8 °F - 41.0 °F 67% 29.87 in 10.0 mi North 6.9 mph - N/A   Overcast
9:54 PM 51.8 °F - 42.8 °F 71% 29.86 in 10.0 mi North 4.6 mph - N/A   Mostly Cloudy
10:15 PM 51.8 °F - 42.8 °F 71% 29.87 in 10.0 mi North 4.6 mph - N/A   Overcast
10:35 PM 51.8 °F - 42.8 °F 71% 29.87 in 10.0 mi Calm Calm - N/A   Overcast
11:15 PM 51.8 °F - 42.8 °F 71% 29.89 in 10.0 mi Calm Calm - N/A Rain Rain
11:35 PM 51.8 °F - 42.8 °F 71% 29.87 in 10.0 mi North 4.6 mph - N/A Rain Light Rain
11:55 PM 50.0 °F - 44.6 °F 82% 29.85 in 10.0 mi Calm Calm - N/A   Overcast